Location: Newark
(48.1333°N, 17.1000°E)
Time: 11:07:39
(UTC+00:00)

N. Korean satellite - Pass Details

Date: 31 January 2020
Orbit: 456 x 505 km, 97.2° (Epoch: 19 February)

Event Time Altitude Azimuth Distance (km) Brightness Sun altitude
Rises 16:54:50 0° 212° (SSW) 2,462 10.9 -11.2°
Reaches altitude 10° 16:57:48 10° 242° (WSW) 1,600 10.6 -11.7°
Maximum altitude 16:59:25 13° 270° (W) 1,440 10.3 -12.0°
Drops below altitude 10° 17:01:04 10° 299° (WNW) 1,614 10.0 -12.2°
Sets 17:04:06 0° 329° (NNW) 2,506 10.5 -12.7°
